Tracking 30970 objects as of 3-Jul-2025
HD Live streaming from Space Station
objects crossing your sky now

SL-8 DEB

Track SL-8 DEB now!
10-day predictions


NORAD ID: 21401
Int'l Code: 1991-009BQ
Perigee: 1,498.5 km
Apogee: 1,727.3 km
Inclination: 74.1 °
Period: 118.3 minutes
Semi major axis: 7983 km
RCS: 0.0527 m2 (small)
Launch date: February 12, 1991
Source: Commonwealth of Independent States (former USSR) (CIS)
Launch site: PLESETSK MISSILE AND SPACE COMPLEX (PKMTR)

Note: This is SATELLITE DEBRIS
Your satellite tracking list
Your tracking list is empty




NASA's NSSDC Master Catalog

Two Line Element Set (TLE):
1 21401U 91009BQ  25183.20906322 -.00000060  00000-0 -45109-3 0  9990
2 21401  74.1344  99.0120 0143283  63.4797  96.4862 12.16964212524113
Source of the keplerian elements: AFSPC